Weather History for Wheaton NDB, MN

Change the Weather History Date:

Friday, August 2, 2013

  Actual Average Record
Temperature  
Mean Temperature 66 °F -  
Max Temperature 78 °F 84 °F 102 °F (1958)
Min Temperature 55 °F 59 °F 46 °F (2002)
Cooling Degree Days 2    
Growing Degree Days 16 (Base 50)    
Moisture  
Dew Point 56 °F    
Average Humidity 70    
Maximum Humidity 100    
Minimum Humidity 41    
Precipitation  
Precipitation 0.00 in - - ()
Sea Level Pressure  
Sea Level Pressure 30.01 in    
Wind  
Wind Speed 2 mph (NNW)    
Max Wind Speed 9 mph    
Max Gust Speed -    
Visibility 10 miles    
Events      
Averages and records for this station are not official NWS values.
T = Trace of Precipitation, MM = Missing Value Source: NWS Daily Summary

Daily Weather History Graph

Daily Weather History Graph

Search for Another Location

Airport:

Trip Planner

Search our weather history database for the weather conditions in past years. The results will help you decide how hot, cold, wet, or windy it might be!

Date:

Astronomy

Aug. 02, 2013 Rise Set
Actual Time 6:10 AM CDT 8:53 PM CDT
Civil Twilight 5:36 AM CDT 9:27 PM CDT
Nautical Twilight 4:53 AM CDT 10:10 PM CDT
Astronomical Twilight 4:02 AM CDT 11:00 PM CDT
Moon 2:30 AM CDT (8/2) 5:54 PM CDT (8/2)
Length of Visible Light 15h 50m
Length of Day
14h 42m
Waning Crescent, 15% of the Moon is Illuminated
Aug 2
Waning Crescent
Aug 6
New
Aug 14
First Quarter
Aug 20
Full
Aug 28
Last Quarter

Hourly Weather History & Observations

Time (CDT) Temp. Dew Point Humidity Pressure Visibility Wind Dir Wind Speed Gust Speed Precip Events Conditions
12:15 AM 62.6 °F 57.2 °F 82% 29.94 in 10.0 mi Calm Calm - N/A   Clear
12:35 AM 64.4 °F 57.2 °F 77% 29.94 in 10.0 mi Calm Calm - N/A   Clear
12:55 AM 62.6 °F 55.4 °F 77% 29.94 in 10.0 mi Calm Calm - N/A   Clear
1:15 AM 62.6 °F 55.4 °F 77% 29.94 in 10.0 mi Calm Calm - N/A   Clear
1:35 AM 62.6 °F 55.4 °F 77% 29.94 in 10.0 mi Calm Calm - N/A   Clear
1:55 AM 60.8 °F 55.4 °F 82% 29.94 in 10.0 mi Calm Calm - N/A   Clear
2:14 AM 57.2 °F 55.4 °F 94% 29.94 in 10.0 mi SW 3.5 mph - N/A   Clear
2:34 AM 57.2 °F 55.4 °F 94% 29.96 in 10.0 mi WSW 3.5 mph - N/A   Clear
2:54 AM 59.0 °F 55.4 °F 88% 29.95 in 10.0 mi Calm Calm - N/A   Clear
3:15 AM 57.2 °F 55.4 °F 94% 29.95 in 10.0 mi Calm Calm - N/A   Clear
3:35 AM 57.2 °F 55.4 °F 94% 29.95 in 10.0 mi Calm Calm - N/A   Clear
3:55 AM 57.2 °F 55.4 °F 94% 29.94 in 10.0 mi Calm Calm - N/A   Clear
4:14 AM 55.4 °F 55.4 °F 100% 29.95 in 10.0 mi Calm Calm - N/A   Clear
4:34 AM 57.2 °F 55.4 °F 94% 29.96 in 10.0 mi Calm Calm - N/A   Clear
4:55 AM 57.2 °F 55.4 °F 94% 29.96 in 10.0 mi SW 4.6 mph - N/A   Clear
5:15 AM 57.2 °F 55.4 °F 94% 29.97 in 10.0 mi WSW 3.5 mph - N/A   Clear
5:34 AM 57.2 °F 53.6 °F 88% 29.97 in 10.0 mi WSW 4.6 mph - N/A   Clear
5:54 AM 55.4 °F 53.6 °F 94% 29.97 in 10.0 mi Calm Calm - N/A   Clear
6:15 AM 55.4 °F 55.4 °F 100% 29.97 in 10.0 mi Calm Calm - N/A   Clear
6:34 AM 55.4 °F 55.4 °F 100% 29.97 in 10.0 mi Calm Calm - N/A   Clear
6:54 AM 57.2 °F 55.4 °F 94% 29.98 in 10.0 mi Calm Calm - N/A   Clear
7:15 AM 60.8 °F 57.2 °F 88% 29.99 in 10.0 mi Calm Calm - N/A   Clear
7:34 AM 62.6 °F 57.2 °F 82% 29.98 in 10.0 mi Calm Calm - N/A   Clear
7:54 AM 64.4 °F 59.0 °F 83% 29.99 in 10.0 mi WNW 3.5 mph - N/A   Clear
8:14 AM 64.4 °F 57.2 °F 77% 30.00 in 10.0 mi NW 4.6 mph - N/A   Clear
8:34 AM 64.4 °F 59.0 °F 83% 30.00 in 10.0 mi NW 3.5 mph - N/A   Clear
8:55 AM 64.4 °F 57.2 °F 77% 30.00 in 10.0 mi NW 4.6 mph - N/A   Clear
9:14 AM 64.4 °F 59.0 °F 83% 29.99 in 10.0 mi North 6.9 mph - N/A   Clear
9:35 AM 64.4 °F 59.0 °F 83% 29.99 in 10.0 mi North 4.6 mph - N/A   Clear
9:55 AM 66.2 °F 59.0 °F 78% 30.00 in 10.0 mi NNW 5.8 mph - N/A   Clear
10:15 AM 66.2 °F 59.0 °F 78% 30.00 in 10.0 mi North 5.8 mph - N/A   Clear
10:35 AM 68.0 °F 60.8 °F 78% 30.01 in 10.0 mi NNW 4.6 mph - N/A   Clear
10:54 AM 69.8 °F 60.8 °F 73% 30.02 in 10.0 mi NNW 5.8 mph - N/A   Clear
11:14 AM 69.8 °F 60.8 °F 73% 30.01 in 10.0 mi NNW 6.9 mph - N/A   Clear
11:35 AM 71.6 °F 60.8 °F 69% 30.02 in 10.0 mi North 4.6 mph - N/A   Clear
11:55 AM 73.4 °F 57.2 °F 57% 30.02 in 10.0 mi North 8.1 mph - N/A   Clear
12:15 PM 75.2 °F 55.4 °F 50% 30.02 in 10.0 mi North 6.9 mph - N/A   Clear
12:35 PM 75.2 °F 53.6 °F 47% 30.02 in 10.0 mi North 6.9 mph - N/A   Clear
12:54 PM 75.2 °F 55.4 °F 50% 30.03 in 10.0 mi North 6.9 mph - N/A   Clear
1:15 PM 75.2 °F 55.4 °F 50% 30.03 in 10.0 mi North 5.8 mph - N/A   Clear
1:35 PM 75.2 °F 57.2 °F 53% 30.03 in 10.0 mi North 4.6 mph - N/A   Clear
1:55 PM 73.4 °F 55.4 °F 53% 30.03 in 10.0 mi NNE 3.5 mph - N/A   Clear
2:15 PM 75.2 °F 55.4 °F 50% 30.03 in 10.0 mi North 4.6 mph - N/A   Clear
2:35 PM 75.2 °F 55.4 °F 50% 30.03 in 10.0 mi NNW 4.6 mph - N/A   Scattered Clouds
2:54 PM 75.2 °F 55.4 °F 50% 30.02 in 10.0 mi Calm Calm - N/A   Scattered Clouds
3:14 PM 75.2 °F 55.4 °F 50% 30.02 in 10.0 mi North 6.9 mph - N/A   Scattered Clouds
3:34 PM 75.2 °F 55.4 °F 50% 30.02 in 10.0 mi North 5.8 mph - N/A   Clear
3:54 PM 75.2 °F 53.6 °F 47% 30.01 in 10.0 mi North 5.8 mph - N/A   Clear
4:15 PM 75.2 °F 51.8 °F 44% 30.03 in 10.0 mi North 3.5 mph - N/A   Scattered Clouds
4:35 PM 77.0 °F 53.6 °F 44% 30.02 in 10.0 mi North 5.8 mph - N/A   Scattered Clouds
4:55 PM 77.0 °F 53.6 °F 44% 30.02 in 10.0 mi North 8.1 mph - N/A   Scattered Clouds
5:14 PM 78.8 °F 55.4 °F 44% 30.03 in 10.0 mi North 8.1 mph - N/A   Scattered Clouds
5:34 PM 77.0 °F 51.8 °F 41% 30.03 in 10.0 mi NNW 6.9 mph - N/A   Scattered Clouds
5:55 PM 77.0 °F 53.6 °F 44% 30.03 in 10.0 mi North 8.1 mph - N/A   Clear
6:14 PM 77.0 °F 53.6 °F 44% 30.03 in 10.0 mi NW 9.2 mph - N/A   Clear
6:35 PM 75.2 °F 53.6 °F 47% 30.03 in 10.0 mi NW 5.8 mph - N/A   Clear
6:55 PM 75.2 °F 55.4 °F 50% 30.04 in 10.0 mi NW 6.9 mph - N/A   Clear
7:15 PM 75.2 °F 55.4 °F 50% 30.05 in 10.0 mi NW 8.1 mph - N/A   Scattered Clouds
7:35 PM 73.4 °F 55.4 °F 53% 30.05 in 10.0 mi NNW 8.1 mph - N/A   Clear
7:55 PM 73.4 °F 57.2 °F 57% 30.05 in 10.0 mi NNW 4.6 mph - N/A   Clear
8:15 PM 69.8 °F 57.2 °F 64% 30.06 in 10.0 mi North 3.5 mph - N/A   Clear
8:34 PM 69.8 °F 55.4 °F 60% 30.06 in 10.0 mi North 3.5 mph - N/A   Clear
8:54 PM 68.0 °F 55.4 °F 64% 30.06 in 10.0 mi Calm Calm - N/A   Clear
9:14 PM 66.2 °F 55.4 °F 68% 30.07 in 10.0 mi NNE 4.6 mph - N/A   Clear
9:34 PM 64.4 °F 53.6 °F 68% 30.08 in 10.0 mi NNE 3.5 mph - N/A   Clear
9:54 PM 64.4 °F 53.6 °F 68% 30.09 in 10.0 mi Calm Calm - N/A   Clear
10:14 PM 64.4 °F 53.6 °F 68% 30.10 in 10.0 mi Calm Calm - N/A   Clear
10:34 PM 62.6 °F 53.6 °F 72% 30.10 in 10.0 mi Calm Calm - N/A   Clear
10:54 PM 59.0 °F 53.6 °F 82% 30.10 in 10.0 mi Calm Calm - N/A   Clear
11:14 PM 59.0 °F 53.6 °F 82% 30.10 in 10.0 mi Calm Calm - N/A   Clear
11:34 PM 60.8 °F 53.6 °F 77% 30.11 in 10.0 mi Calm Calm - N/A   Clear
11:54 PM 57.2 °F 53.6 °F 88% 30.11 in 10.0 mi Calm Calm - N/A   Clear